SL-27 R/B (40354 NORAD) Tracking and Keplerian Element Data

This shows tracking and keplerian element data for the satellite.

Feedback or suggestion? Click here.




ElementValue
Catalog40354
NameSL-27 R/B
Epoch Orbit21832
Epoch Day315.92978969
Epoch Year2018
RAAN154.4947
Inclination74.737
Eccentricity0.00398
Argument of Perigee277.7349
Mean Anonmoly81.9344
Mean Motion15.39348711
Decay Rate9.24E-06
L11 40354U 14084B 18315.92978969 .00000924 00000-0 24408-4 0 9997
L22 40354 74.7370 154.4947 0039800 277.7349 81.9344 15.39348711218326

Live tracking and technical data element details for SL-27 R/B (NORAD 40354). SL-27 R/B can be tracked NOW for your location showing map with azimuth and elevation plus other details from your city location.

Track the satellite on the map from your city or location and see movement details for azimuth, elevation, latitude, longitude, range, height, and movement on the map or in text.







IsCatalogInMostPopularTable: catalog: 40354, numindb: 85
Update: records affected: 1



GetName: 40354 SL-27 R/B

Hit Count: updated at: Mon, 12 Nov 2018 21:49:24 GMT